Findlay, OH

11:30 AM EST on January 22, 2018 (GMT -0500)
Findlay

Weather History for KFDY - February, 2013

Change the Weather History Date:

Monday, February 18, 2013

  Actual Average Record
Temperature  
Mean Temperature 34 °F -  
Max Temperature 51 °F 38 °F 70 °F (2017)
Min Temperature 18 °F 23 °F -5 °F (1993)
Degree Days  
Heating Degree Days 30    
Moisture  
Dew Point 23 °F    
Average Humidity 59    
Maximum Humidity 71    
Minimum Humidity 48    
Precipitation  
Precipitation 0.00 in - - ()
Sea Level Pressure  
Sea Level Pressure 29.95 in    
Wind  
Wind Speed 14 mph (SSE)    
Max Wind Speed 23 mph    
Max Gust Speed 28 mph    
Visibility 10 miles    
Events Rain    
Averages and records for this station are not official NWS values.
T = Trace of Precipitation, MM = Missing Value Source: NWS Daily Summary

Daily Weather History Graph

Daily Weather History Graph

Search for Another Location

Airport or City:

Trip Planner

Search our weather history database for the weather conditions in past years. The results will help you decide how hot, cold, wet, or windy it might be!

Date:

Astronomy

Feb. 18, 2013 Rise Set
Actual Time 7:24 AM EST 6:13 PM EST
Civil Twilight 6:56 AM EST 6:41 PM EST
Nautical Twilight 6:24 AM EST 7:13 PM EST
Astronomical Twilight 5:52 AM EST 7:45 PM EST
Moon 11:56 AM EST (2/18) 2:04 AM EST (2/18)
Length of Visible Light 11h 44m
Length of Day
10h 48m
First Quarter, 58% of the Moon is Illuminated
Feb 18
First Quarter
Feb 25
Full
Mar 4
Last Quarter
Mar 11
New
Mar 19
First Quarter

Hourly Weather History & Observations

Time (EST) Temp. Windchill Dew Point Humidity Pressure Visibility Wind Dir Wind Speed Gust Speed Precip Events Conditions
12:53 AM 18.0 °F 7.7 °F 10.0 °F 71% 30.22 in 10.0 mi SSE 8.1 mph - N/A   Clear
1:53 AM 19.0 °F 9.0 °F 10.0 °F 68% 30.22 in 10.0 mi SSE 8.1 mph - N/A   Clear
2:53 AM 19.0 °F 6.8 °F 10.0 °F 68% 30.21 in 10.0 mi SSE 11.5 mph - N/A   Clear
3:53 AM 19.9 °F 7.3 °F 10.0 °F 65% 30.19 in 10.0 mi SSE 12.7 mph - N/A   Clear
4:53 AM 19.0 °F 5.6 °F 10.0 °F 68% 30.17 in 10.0 mi SSE 13.8 mph - N/A   Clear
5:53 AM 19.9 °F 6.2 °F 10.0 °F 65% 30.14 in 10.0 mi SSE 15.0 mph 24.2 mph N/A   Partly Cloudy
7:53 AM 21.0 °F 6.2 °F 10.9 °F 65% 30.11 in 10.0 mi SE 18.4 mph - N/A   Clear
9:53 AM 28.0 °F 14.3 °F 14.0 °F 56% 30.04 in 10.0 mi SSE 21.9 mph 26.5 mph N/A   Clear
10:53 AM 33.1 °F 21.9 °F 16.0 °F 50% 30.01 in 10.0 mi SSE 18.4 mph 27.6 mph N/A   Clear
11:53 AM 37.9 °F 27.1 °F 19.9 °F 48% 29.99 in 10.0 mi South 23.0 mph - N/A   Clear
12:53 PM 43.0 °F 35.7 °F 25.0 °F 49% 29.95 in 10.0 mi South 15.0 mph - N/A   Clear
1:53 PM 46.9 °F - 28.9 °F 50% 29.90 in 10.0 mi South 20.7 mph - N/A   Clear
2:53 PM 50.0 °F - 32.0 °F 50% 29.88 in 10.0 mi South 18.4 mph - N/A   Clear
3:53 PM 51.1 °F - 33.1 °F 50% 29.85 in 10.0 mi South 16.1 mph 25.3 mph N/A   Clear
4:53 PM 50.0 °F - 33.1 °F 52% 29.82 in 10.0 mi SSE 13.8 mph 21.9 mph N/A   Clear
5:53 PM 46.9 °F - 33.1 °F 59% 29.80 in 10.0 mi SSE 18.4 mph - N/A   Clear
6:53 PM 46.9 °F - 33.1 °F 59% 29.79 in 10.0 mi SSE 18.4 mph - N/A   Overcast
7:53 PM 44.1 °F 36.2 °F 32.0 °F 63% 29.78 in 10.0 mi SSE 18.4 mph 24.2 mph N/A   Mostly Cloudy
8:53 PM 45.0 °F 37.1 °F 33.1 °F 63% 29.74 in 10.0 mi South 19.6 mph - N/A   Mostly Cloudy
9:53 PM 45.0 °F 38.5 °F 33.1 °F 63% 29.70 in 10.0 mi SSE 13.8 mph - N/A   Overcast
10:53 PM 46.0 °F 38.3 °F 32.0 °F 58% 29.67 in 10.0 mi South 20.7 mph - N/A   Mostly Cloudy
11:53 PM 46.0 °F 39.0 °F 33.1 °F 61% 29.65 in 10.0 mi South 17.3 mph - 0.00 in Rain Light Rain